Location: Wien
(48.2082°N, 16.3738°E)
Time: 20:44:49
(UTC+02:00)

JY1SAT - Visible Passes

Search period start: 22 April 2024 00:00
Search period end: 02 May 2024 00:00
Orbit: 540 x 556 km, 97.5° (Epoch: 21 April)

Date Brightness Start Highest point End Pass type
(mag) Time Alt. Az. Time Alt. Az. Time Alt. Az.
22 Apr ? 20:57:28 14° ESE 21:00:04 27° ENE 21:03:24 10° N visible
22 Apr ? 22:33:08 22° SW 22:34:42 29° W 22:38:12 10° NNW visible
23 Apr ? 20:52:29 12° ESE 20:55:15 24° ENE 20:58:27 10° NNE visible
23 Apr ? 22:28:09 23° SW 22:29:50 33° W 22:33:25 10° NNW visible
24 Apr ? 20:47:28 10° ESE 20:50:24 22° ENE 20:53:26 10° NNE visible
24 Apr ? 22:23:07 24° SSW 22:24:54 37° W 22:28:35 10° NNW visible
25 Apr ? 20:42:38 10° ESE 20:45:30 20° ENE 20:48:23 10° NNE visible
25 Apr ? 22:18:04 24° SSW 22:19:57 42° W 22:23:43 10° NNW visible
26 Apr ? 20:37:55 10° ESE 20:40:36 18° ENE 20:43:16 10° NNE visible
26 Apr ? 22:12:58 25° SSW 22:14:57 47° W 22:18:47 10° NNW visible
27 Apr ? 20:33:11 10° E 20:35:38 16° ENE 20:38:05 10° NNE visible
27 Apr ? 22:07:49 24° SSW 22:09:56 54° W 22:13:48 10° NNW visible
28 Apr ? 22:02:39 24° S 22:04:52 62° WSW 22:08:47 10° NNW visible
29 Apr ? 21:57:26 23° S 21:59:47 71° WSW 22:03:43 10° NNW visible
30 Apr ? 21:52:11 22° S 21:54:39 80° WSW 21:58:36 10° NNW visible
01 May ? 21:46:53 21° SSE 21:49:29 89° E 21:53:26 10° NNW visible
